Chapel Hill, NC

5:36 AM EDT on June 24, 2017 (GMT -0400)
Williams

Weather History for KIGX - January, 2013

Change the Weather History Date:

Thursday, January 24, 2013

  Actual Average Record
Temperature  
Mean Temperature 30 °F -  
Max Temperature 37 °F 50 °F 75 °F (1949)
Min Temperature 23 °F 28 °F 6 °F (1963)
Degree Days  
Heating Degree Days 34    
Moisture  
Dew Point 8 °F    
Average Humidity 41    
Maximum Humidity 67    
Minimum Humidity 24    
Precipitation  
Precipitation 0.00 in - - ()
Sea Level Pressure  
Sea Level Pressure 30.28 in    
Wind  
Wind Speed 4 mph (North)    
Max Wind Speed 16 mph    
Max Gust Speed 25 mph    
Visibility 10 miles    
Events      
Averages and records for this station are not official NWS values.
T = Trace of Precipitation, MM = Missing Value Source: NWS Daily Summary

Daily Weather History Graph

Daily Weather History Graph

Search for Another Location

Airport or City:

Trip Planner

Search our weather history database for the weather conditions in past years. The results will help you decide how hot, cold, wet, or windy it might be!

Date:

Astronomy

Jan. 24, 2013 Rise Set
Actual Time 7:22 AM EST 5:35 PM EST
Civil Twilight 6:54 AM EST 6:02 PM EST
Nautical Twilight 6:23 AM EST 6:33 PM EST
Astronomical Twilight 5:53 AM EST 7:04 PM EST
Moon 3:36 PM EST 5:17 AM EST
Length of Visible Light 11h 07m
Length of Day
10h 13m
Waxing Gibbous, 94% of the Moon is Illuminated
Jan 24
Waxing Gibbous
Jan 26
Full
Feb 3
Last Quarter
Feb 10
New
Feb 17
First Quarter

Hourly Weather History & Observations

Time (EST) Temp. Windchill Dew Point Humidity Pressure Visibility Wind Dir Wind Speed Gust Speed Precip Events Conditions
12:56 AM 28.0 °F - 15.1 °F 58% 30.03 in 10.0 mi Calm Calm - N/A   Clear
1:56 AM 28.0 °F - 16.0 °F 61% 30.02 in 10.0 mi Calm Calm - N/A   Clear
2:56 AM 28.9 °F - 16.0 °F 58% 30.00 in 10.0 mi Calm Calm - N/A   Scattered Clouds
3:56 AM 28.9 °F - 19.0 °F 67% 29.97 in 10.0 mi Calm Calm - N/A   Overcast
4:56 AM 32.0 °F - 19.9 °F 61% 29.97 in 10.0 mi Calm Calm - N/A   Overcast
5:56 AM 34.0 °F 28.0 °F 21.9 °F 61% 30.02 in 10.0 mi NW 6.9 mph - N/A   Overcast
6:56 AM 34.0 °F 28.8 °F 19.9 °F 56% 30.07 in 10.0 mi NNW 5.8 mph - N/A   Mostly Cloudy
7:56 AM 33.1 °F 26.9 °F 16.0 °F 50% 30.12 in 10.0 mi North 6.9 mph - N/A   Clear
8:56 AM 33.1 °F 28.7 °F 16.0 °F 50% 30.18 in 10.0 mi Variable 4.6 mph - N/A   Clear
10:56 AM 37.0 °F 27.7 °F 12.9 °F 37% 30.27 in 10.0 mi North 16.1 mph 21.9 mph N/A   Clear
11:56 AM 36.0 °F 26.7 °F 9.0 °F 33% 30.32 in 10.0 mi North 15.0 mph 25.3 mph N/A   Clear
12:56 PM 34.0 °F 25.0 °F 5.0 °F 30% 30.34 in 10.0 mi North 12.7 mph 24.2 mph N/A   Clear
1:56 PM 34.0 °F 25.5 °F 1.0 °F 25% 30.36 in 10.0 mi NNW 11.5 mph 24.2 mph N/A   Clear
2:56 PM 34.0 °F 25.0 °F -0.0 °F 24% 30.38 in 10.0 mi NNW 12.7 mph 24.2 mph N/A   Clear
3:56 PM 33.1 °F 26.1 °F -0.0 °F 24% 30.41 in 10.0 mi NW 8.1 mph 16.1 mph N/A   Clear
4:56 PM 30.9 °F 23.5 °F -0.0 °F 27% 30.43 in 10.0 mi NW 8.1 mph - N/A   Clear
5:56 PM 30.0 °F 26.5 °F -0.9 °F 27% 30.46 in 10.0 mi Variable 3.5 mph - N/A   Clear
6:56 PM 28.9 °F 23.9 °F -0.0 °F 29% 30.49 in 10.0 mi Variable 4.6 mph - N/A   Clear
7:56 PM 28.0 °F - -0.9 °F 29% 30.51 in 10.0 mi Calm Calm - N/A   Clear
8:56 PM 27.0 °F 21.6 °F -0.9 °F 30% 30.52 in 10.0 mi North 4.6 mph - N/A   Clear
9:56 PM 25.0 °F 18.1 °F -0.0 °F 34% 30.51 in 10.0 mi NE 5.8 mph - N/A   Clear
10:56 PM 24.1 °F 17.0 °F 1.0 °F 37% 30.52 in 10.0 mi NNE 5.8 mph - N/A   Clear
11:56 PM 23.0 °F 17.0 °F 1.9 °F 40% 30.51 in 10.0 mi NE 4.6 mph - N/A   Clear